(195289) = 2002 EZ82

Discovered at Palomar on 2002-03-13 by NEAT.

Orbit

Orbit type: Main Belt

Note: WebGL enabled browser required.

epoch2024-03-31.0
epoch JD2460400.5
perihelion date2022-05-31.21593
perihelion JD2459730.71593
argument of perihelion (°)349.56133
ascending node (°)350.94512
inclination (°)11.41279
eccentricity0.0712925
perihelion distance (AU)2.5482287
Tisserand w.r.t. Jupiter3.3
ΔV w.r.t. Earth (km/sec)10.6
semimajor axis (AU)2.7438442
mean anomaly (°)145.24443
mean daily motion (°/day)0.21685260
aphelion distance (AU)2.939
period (years)4.55
P-vector [x]0.94324292
P-vector [y]-0.28865739
P-vector [z]-0.16422457
Q-vector [x]0.33064027
Q-vector [y]0.76986446
Q-vector [z]0.54588069
absolute magnitude15.91
phase slope0.15
uncertainty0
referenceMPEC 2024-C163
observations used495
oppositions14
arc length (days)8954
first opposition used1999
last opposition used2024
residual rms (arc-secs)0.65
perturbers coarse indicatorM-v
perturbers precise indicator003Ek
first observation date used1999-08-09.0
last observation date used2024-02-13.0
computer nameMPCLINUX
JD of orbit computation2456639.559707
perihelion JD uncertainty (days)2.9562E-04
argument of perihelion uncertainty (°)7.0810E-05
ascending node uncertainty (°)3.5705E-05
inclination uncertainty (°)1.6751E-05
eccentricity uncertainty 1.7727E-07
perihelion distance uncertainty (AU)4.6745E-07
Minimum Orbit Intersection Distances (in AU)
for orbit epoch: 2460400.5, reference: E2024-G77
Mercury2.14272
Venus1.82078
Earth1.54097
Mars1.16586
Jupiter2.40117
Saturn6.26459
Uranus15.5004
Neptune27.2326

Observations

509 total observations over interval: 1999 08 09.04773 – 2024 02 13.371288
These data are available for download (format description).

Date (UT) J2000 RA J2000 Dec Magn Location Ref
1999 08 09.04773 23 19 38.13 -09 51 06.5 19.9 V 557 – Ondrejov MPS 54914
1999 08 09.06410 23 19 37.47 -09 51 08.0   557 – Ondrejov MPS 54914
1999 08 09.07950 23 19 36.97 -09 51 06.6   557 – Ondrejov MPS 54914
1999 10 01.21151 22 34 19.29 -10 05 25.3 20.1   704 – Lincoln Laboratory ETS, New Mexico MPS 54914
1999 10 01.21686 22 34 19.06 -10 05 25.3 20.3   704 – Lincoln Laboratory ETS, New Mexico MPS 54914
1999 10 01.22198 22 34 18.90 -10 05 25.2 20.3   704 – Lincoln Laboratory ETS, New Mexico MPS 54914
1999 10 01.22724 22 34 18.68 -10 05 23.6 20.4   704 – Lincoln Laboratory ETS, New Mexico MPS 54914
1999 10 01.24263 22 34 18.08 -10 05 22.9 20.3   704 – Lincoln Laboratory ETS, New Mexico MPS 54914
1999 10 01.24775 22 34 17.78 -10 05 22.6 20.0   704 – Lincoln Laboratory ETS, New Mexico MPS 54914
2002 03 13.48130 12 00 21.83 -02 20 56.3 19.8   644 – Palomar Mountain/NEAT MPS 55816
2002 03 13.49203 12 00 21.26 -02 20 54.7 20.1   644 – Palomar Mountain/NEAT MPS 55816
2002 03 13.50260 12 00 20.65 -02 20 53.4 20.5   644 – Palomar Mountain/NEAT MPS 55816
2002 03 15.46463 11 58 32.41 -02 16 40.0 20.2   644 – Palomar Mountain/NEAT MPS 55816
2002 03 15.47547 11 58 31.77 -02 16 38.7 20.2   644 – Palomar Mountain/NEAT MPS 55816
2002 03 15.48631 11 58 31.16 -02 16 36.7 20.2   644 – Palomar Mountain/NEAT MPS 55816
2002 03 20.31044 11 54 01.74 -02 05 33.8 21.0 V 691 – Steward Observatory, Kitt Peak-Spacewatch MPS 54914
2002 03 20.33147 11 54 00.52 -02 05 30.6 20.6 V 691 – Steward Observatory, Kitt Peak-Spacewatch MPS 54914
2002 03 20.36422 11 53 58.64 -02 05 26.1 20.5 V 691 – Steward Observatory, Kitt Peak-Spacewatch MPS 54914
2002 04 04.21349 11 40 39.24 -01 30 19.9 20.6   644 – Palomar Mountain/NEAT MPS 54914
2002 04 04.23462 11 40 38.17 -01 30 17.1 20.6   644 – Palomar Mountain/NEAT MPS 54914
2002 04 04.25556 11 40 37.08 -01 30 14.3 20.2   644 – Palomar Mountain/NEAT MPS 54914
2002 04 14.19589 11 33 09.52 -01 11 06.7 19.8   704 – Lincoln Laboratory ETS, New Mexico MPS 54914
2002 04 14.21026 11 33 08.99 -01 11 05.3 20.4   704 – Lincoln Laboratory ETS, New Mexico MPS 54914
2002 04 14.22426 11 33 08.33 -01 11 05.1 20.2   704 – Lincoln Laboratory ETS, New Mexico MPS 54914
2002 04 14.23816 11 33 07.80 -01 11 04.4 20.1   704 – Lincoln Laboratory ETS, New Mexico MPS 54914
2004 10 15.30299 02 04 15.64 +25 15 09.5 19.6   704 – Lincoln Laboratory ETS, New Mexico MPS 158904
2004 10 15.31406 02 04 15.01 +25 15 08.8 19.7   704 – Lincoln Laboratory ETS, New Mexico MPS 158904
2004 10 15.32515 02 04 14.33 +25 15 09.9 19.4   704 – Lincoln Laboratory ETS, New Mexico MPS 158904
2004 10 15.33622 02 04 13.63 +25 15 08.6 19.9   704 – Lincoln Laboratory ETS, New Mexico MPS 158904
2004 10 15.34731 02 04 12.96 +25 15 09.1 20.0   704 – Lincoln Laboratory ETS, New Mexico MPS 158904
2006 01 06.34218 09 42 04.24 +25 34 40.9 19.6 R 699 – Lowell Observatory-LONEOS MPS 158904
2006 01 06.36870 09 42 03.27 +25 34 46.1   699 – Lowell Observatory-LONEOS MPS 158904
2006 01 06.39521 09 42 02.30 +25 34 49.5   699 – Lowell Observatory-LONEOS MPS 158904
2006 01 06.42173 09 42 01.18 +25 34 57.1   699 – Lowell Observatory-LONEOS MPS 158904
2006 01 26.32612 09 25 35.61 +26 33 25.6 19.7 V 703 – Catalina Sky Survey MPS 160362
2006 01 26.33240 09 25 35.18 +26 33 28.2 20.1 V 703 – Catalina Sky Survey MPS 160362
2006 01 26.33865 09 25 34.78 +26 33 28.5 20.1 V 703 – Catalina Sky Survey MPS 160362
2006 01 26.34494 09 25 34.35 +26 33 29.9 19.5 V 703 – Catalina Sky Survey MPS 160362
2008 08 05.55749 22 35 35.34 -17 23 16.8 19.1 V E12 – Siding Spring Survey MPS 253496
2008 08 05.56836 22 35 34.76 -17 23 17.7 19.5 V E12 – Siding Spring Survey MPS 253496
2008 08 05.57922 22 35 34.29 -17 23 19.2 19.2 V E12 – Siding Spring Survey MPS 253496
2008 08 05.59012 22 35 33.61 -17 23 21.5 18.7 V E12 – Siding Spring Survey MPS 253496
2008 08 23.26853 22 19 16.36 -17 42 47.5 19.1   704 – Lincoln Laboratory ETS, New Mexico MPS 254420
2008 08 23.28153 22 19 15.51 -17 42 48.9 19.5   704 – Lincoln Laboratory ETS, New Mexico MPS 254420
2008 08 23.29463 22 19 14.77 -17 42 49.1 19.2   704 – Lincoln Laboratory ETS, New Mexico MPS 254420
2008 08 23.30773 22 19 13.91 -17 42 48.9 19.4   704 – Lincoln Laboratory ETS, New Mexico MPS 254420
2008 08 23.32079 22 19 13.11 -17 42 49.7 19.3   704 – Lincoln Laboratory ETS, New Mexico MPS 254420
2008 09 19.17480 21 55 30.83 -17 18 36.5 19.3   704 – Lincoln Laboratory ETS, New Mexico MPS 256581
2008 09 19.19897 21 55 29.78 -17 18 31.8 19.4   704 – Lincoln Laboratory ETS, New Mexico MPS 256581
2008 09 19.22305 21 55 28.86 -17 18 26.4 20.0   704 – Lincoln Laboratory ETS, New Mexico MPS 256581
2008 09 23.16880 21 53 07.28 -17 07 25.1 19.7   704 – Lincoln Laboratory ETS, New Mexico MPS 256581
2008 09 23.18104 21 53 06.83 -17 07 23.4 19.6   704 – Lincoln Laboratory ETS, New Mexico MPS 256581
2008 09 23.19337 21 53 06.39 -17 07 20.4 19.8   704 – Lincoln Laboratory ETS, New Mexico MPS 256581
2008 09 23.20559 21 53 05.98 -17 07 18.6 19.9   704 – Lincoln Laboratory ETS, New Mexico MPS 256581
2008 09 23.21788 21 53 05.56 -17 07 16.8 19.7   704 – Lincoln Laboratory ETS, New Mexico MPS 256581
2008 09 25.18141 21 52 04.29 -17 01 04.6 19.4 V G96 – Mt. Lemmon Survey MPS 256581
2008 09 25.18906 21 52 04.08 -17 01 03.7 19.4 V G96 – Mt. Lemmon Survey MPS 256581
2008 09 25.19669 21 52 03.79 -17 01 00.8 19.3 V G96 – Mt. Lemmon Survey MPS 256581
2008 09 25.20444 21 52 03.61 -17 00 59.4 19.6 V G96 – Mt. Lemmon Survey MPS 256581
2008 09 28.16078 21 50 43.21 -16 50 45.1 19.4   704 – Lincoln Laboratory ETS, New Mexico MPS 257807
2008 09 28.17313 21 50 42.86 -16 50 41.9 19.7   704 – Lincoln Laboratory ETS, New Mexico MPS 257807
2008 09 28.18550 21 50 42.50 -16 50 40.2 19.8   704 – Lincoln Laboratory ETS, New Mexico MPS 257807
2011 02 25.40244 11 41 34.90 +02 49 07.0 20.4 V G96 – Mt. Lemmon Survey MPS 371860
2011 02 25.40998 11 41 34.54 +02 49 08.0 20.2 V G96 – Mt. Lemmon Survey MPS 371860
2011 02 25.41750 11 41 34.15 +02 49 08.9 20.4 V G96 – Mt. Lemmon Survey MPS 371860
2011 02 25.42508 11 41 33.75 +02 49 09.7 20.4 V G96 – Mt. Lemmon Survey MPS 371860
2011 03 04.22964 11 35 39.48 +03 02 59.6 19.9 V 691 – Steward Observatory, Kitt Peak-Spacewatch MPS 373213
2011 03 04.24480 11 35 38.62 +03 03 01.2 20.0 V 691 – Steward Observatory, Kitt Peak-Spacewatch MPS 373213
2011 03 04.25995 11 35 37.80 +03 03 03.3 20.1 V 691 – Steward Observatory, Kitt Peak-Spacewatch MPS 373213
2011 03 09.48177 11 30 48.992 +03 14 52.30 20.1 r F51 – Pan-STARRS 1, Haleakala MPS 387684
2011 03 09.49288 11 30 48.346 +03 14 53.79 19.9 r F51 – Pan-STARRS 1, Haleakala MPS 387684
2011 03 09.50893 11 30 47.421 +03 14 56.08 20.5 g F51 – Pan-STARRS 1, Haleakala MPS 387684
2011 03 09.52082 11 30 46.733 +03 14 57.70 20.6 g F51 – Pan-STARRS 1, Haleakala MPS 387684
2011 03 10.37359 11 29 58.92 +03 16 56.3 19.2 V 703 – Catalina Sky Survey MPS 374629
2011 03 10.38274 11 29 58.34 +03 16 56.9 19.3 V 703 – Catalina Sky Survey MPS 374629
2011 03 10.39107 11 29 57.91 +03 16 57.2 19.6 V 703 – Catalina Sky Survey MPS 374629
2011 03 10.39939 11 29 57.37 +03 16 58.8 19.7 V 703 – Catalina Sky Survey MPS 374629
2011 03 10.66208 11 29 42.85 +03 17 35.6 19.4 R D29 – Purple Mountain Observatory, XuYi Station MPS 374629
2011 03 10.67421 11 29 42.11 +03 17 36.9 19.1 R D29 – Purple Mountain Observatory, XuYi Station MPS 374629
2011 03 10.68635 11 29 41.40 +03 17 37.7 19.0 R D29 – Purple Mountain Observatory, XuYi Station MPS 374629
2011 03 10.69849 11 29 40.68 +03 17 39.7 19.2 R D29 – Purple Mountain Observatory, XuYi Station MPS 374629
2011 04 03.82833 11 08 38.99 +04 05 13.6 20.0 R 157 – Frasso Sabino MPS 381983
2011 04 03.83119 11 08 38.86 +04 05 13.9 20.1 R 157 – Frasso Sabino MPS 381983
2013 10 04.25556 01 23 24.09 +18 30 37.7 19.7 V 703 – Catalina Sky Survey MPS 479654
2013 10 04.26339 01 23 23.63 +18 30 37.8 19.5 V 703 – Catalina Sky Survey MPS 479654
2013 10 04.27125 01 23 23.14 +18 30 38.2 19.6 V 703 – Catalina Sky Survey MPS 479654
2013 10 04.27906 01 23 22.71 +18 30 36.8 19.6 V 703 – Catalina Sky Survey MPS 479654
2013 10 04.28121 01 23 22.59 +18 30 37.2 19.5 V G96 – Mt. Lemmon Survey MPS 479654
2013 10 04.28823 01 23 22.17 +18 30 37.2 19.6 V G96 – Mt. Lemmon Survey MPS 479654
